TIANMU-1 20 (58661 NORAD) Tracking and Keplerian Element Data

This shows tracking and keplerian element data for the satellite.

Feedback or suggestion? Click here.




ElementValue
Catalog58661
NameTIANMU-1 20
Epoch Orbit257
Epoch Day13.24839304
Epoch Year2024
RAAN129.9106
Inclination97.3932
Eccentricity0.0010739
Argument of Perigee194.6714
Mean Anonmoly165.4208
Mean Motion15.14069512
Decay Rate8.218E-05
L11 58661U 23208B 24013.24839304 .00008218 00000+0 45455-3 0 9998
L22 58661 97.3932 129.9106 0010739 194.6714 165.4208 15.14069512 2575



Live tracking and technical data element details for TIANMU-1 20 (NORAD 58661). TIANMU-1 20 can be tracked NOW for your location showing map with azimuth and elevation plus other details from your city location.







IsCatalogInMostPopularTable: catalog: 58661, numindb: 23
Update: records affected: 1



GetName: 58661 TIANMU-1 20

Hit Count: updated at: Wed, 17 Apr 2024 02:21:28 GMT